Location: Treviso
(45.6669°N, 12.2430°E)
Time: 06:49:46
(UTC+01:00)

Envisat - Visible Passes

Search period start: 25 November 2020 00:00
Search period end: 05 December 2020 00:00
Orbit: 764 x 766 km, 98.1° (Epoch: 24 November)

Date Brightness Start Highest point End Pass type
(mag) Time Alt. Az. Time Alt. Az. Time Alt. Az.
25 Nov 5.6 05:04:35 10° NE 05:08:22 21° E 05:12:08 10° SE visible
25 Nov 3.1 06:42:45 10° N 06:47:43 53° WNW 06:52:38 10° SSW visible
25 Nov 4.9 18:00:07 10° SSW 18:04:39 32° W 18:09:13 10° NNW visible
26 Nov 3.3 06:05:51 10° NNE 06:10:57 74° ESE 06:16:02 10° S visible
26 Nov 3.4 17:22:38 10° S 17:27:41 69° WSW 17:32:46 10° NNW visible
27 Nov 4.7 05:29:22 10° NNE 05:34:00 35° E 05:38:37 10° SSE visible
27 Nov 5.8 18:26:41 10° SW 18:30:18 19° W 18:33:57 10° NW visible
28 Nov 5.9 04:53:39 10° NE 04:56:52 17° E 05:00:03 10° SE visible
28 Nov 3.0 06:31:18 10° N 06:36:22 67° WNW 06:41:23 10° SSW visible
28 Nov 4.5 17:48:26 10° SSW 17:53:12 40° W 17:58:00 10° NNW visible
29 Nov 3.6 05:54:30 10° NNE 05:59:33 59° E 06:04:33 10° S visible
29 Nov 3.1 17:11:13 10° SSE 17:16:17 86° WSW 17:21:25 10° NNW visible
29 Nov 6.3 18:54:38 10° WSW 18:56:03 11° W 18:57:30 10° WNW visible
30 Nov 5.1 05:18:11 10° NE 05:22:32 28° E 05:26:52 10° SSE visible
30 Nov 3.4 06:56:56 10° N 07:01:40 40° WNW 07:06:22 10° SW visible
30 Nov 5.4 18:14:43 10° SSW 18:18:48 24° W 18:22:55 10° NW visible
01 Dec 6.1 04:42:59 10° ENE 04:45:19 13° E 04:47:40 10° ESE visible
01 Dec 2.9 06:19:53 10° NNE 06:24:59 83° WNW 06:30:04 10° SSW visible
01 Dec 4.0 17:36:50 10° S 17:41:45 51° W 17:46:43 10° NNW visible
02 Dec 4.1 05:43:12 10° NNE 05:48:07 47° E 05:53:00 10° S visible
02 Dec 3.0 16:59:50 10° SSE 17:04:54 77° ENE 17:10:00 10° N visible
02 Dec 6.1 18:41:50 10° WSW 18:44:31 14° W 18:47:13 10° NW visible
03 Dec 5.4 05:07:05 10° NE 05:11:03 22° E 05:14:59 10° SE visible
03 Dec 3.2 06:45:26 10° N 06:50:20 49° WNW 06:55:13 10° SW visible
03 Dec 5.0 18:02:53 10° SSW 18:07:19 30° W 18:11:47 10° NNW visible
04 Dec 6.4 04:33:30 10° E 04:33:46 10° E 04:34:02 10° E visible
04 Dec 3.1 06:08:29 10° NNE 06:13:36 80° ESE 06:18:41 10° S visible
04 Dec 3.5 17:25:18 10° S 17:30:20 64° W 17:35:24 10° NNW visible
